CW3071 Weather Reports


time (UTC)temp
F
wind
direction
speed
knots
gust
knots
rain 1hr
in
rain 24hr
in
rain mn
in
humidity
%
barometer
mb
20260905150106 74 0 0.0 0.0 0.00 0.00 0.00 34 1018.5
20260905144609 72 0 0.0 1.7 0.00 0.00 0.00 34 1018.5
20260905143107 71 0 0.0 0.0 0.00 0.00 0.00 35 1018.5
20260905141628 69 0 0.0 0.0 0.00 0.00 0.00 38 1018.6
20260905140109 65 0 0.0 0.0 0.00 0.00 0.00 44 1018.6
20260905134558 63 0 0.0 4.3 0.00 0.00 0.00 44 1018.5
20260905133121 60 111 0.9 3.5 0.00 0.00 0.00 46 1018.3
20260905131619 59 345 1.7 4.3 0.00 0.00 0.00 47 1018.3
20260905130106 59 0 0.0 1.7 0.00 0.00 0.00 48 1017.9
20260905124600 58 0 0.0 2.6 0.00 0.00 0.00 48 1017.8
20260905123110 59 0 0.0 2.6 0.00 0.00 0.00 47 1017.7
20260905121606 58 350 0.9 3.5 0.00 0.00 0.00 47 1017.6
20260905120105 58 350 0.0 1.7 0.00 0.00 0.00 50 1017.6
20260905114602 58 350 0.9 2.6 0.00 0.00 0.00 49 1017.8
20260905113101 58 0 0.0 1.7 0.00 0.00 0.00 48 1017.5
20260905111557 59 0 0.0 0.0 0.00 0.00 0.00 47 1017.4
20260905110101 59 0 0.0 0.0 0.00 0.00 0.00 47 1017.3
20260905104559 60 0 0.0 0.9 0.00 0.00 0.00 47 1017.2
20260905103101 60 350 0.9 2.6 0.00 0.00 0.00 47 1017.0
20260905101601 60 350 0.0 2.6 0.00 0.00 0.00 45 1016.8
20260905100121 61 98 0.9 2.6 0.00 0.00 0.00 44 1016.8
20260905094603 61 97 0.9 3.5 0.00 0.00 0.00 44 1016.6
20260905093100 62 87 0.9 2.6 0.00 0.00 0.00 43 1016.7
20260905091609 62 78 0.9 2.6 0.00 0.00 0.00 42 1016.6
20260905090135 62 78 0.0 2.6 0.00 0.00 0.00 43 1016.6
20260905084559 62 0 0.0 0.9 0.00 0.00 0.00 44 1016.6
20260905083058 62 0 0.9 2.6 0.00 0.00 0.00 43 1016.6
20260905081605 62 0 0.0 1.7 0.00 0.00 0.00 42 1016.5
20260905074606 65 0 0.0 1.7 0.00 0.00 0.00 39 1016.3
20260905073107 65 97 0.9 2.6 0.00 0.00 0.00 38 1016.4
20260905071559 66 0 0.0 1.7 0.00 0.00 0.00 38 1016.2
20260905070110 66 0 0.0 1.7 0.00 0.00 0.00 39 1016.2
20260905064559 67 0 0.0 1.7 0.00 0.00 0.00 36 1016.0
20260905063106 67 132 0.0 2.6 0.00 0.00 0.00 34 1016.0
20260905061559 66 0 0.0 2.6 0.00 0.00 0.00 36 1015.6
20260905060109 66 103 0.0 2.6 0.00 0.00 0.00 35 1015.5
20260905054603 68 87 0.9 2.6 0.00 0.00 0.00 33 1015.3
20260905053102 68 0 0.0 3.5 0.00 0.00 0.00 33 1015.1
20260905051600 69 81 1.7 3.5 0.00 0.00 0.00 31 1015.1
20260905050108 70 153 0.0 1.7 0.00 0.00 0.00 30 1015.0
20260905044604 71 0 0.0 1.7 0.00 0.00 0.00 30 1015.0
20260905043103 72 0 0.0 1.7 0.00 0.00 0.00 28 1015.1
20260905041558 74 151 0.9 4.3 0.00 0.00 0.00 27 1015.1
20260905040105 75 0 0.9 4.3 0.00 0.00 0.00 25 1015.1
20260905034601 77 165 2.6 7.8 0.00 0.00 0.00 24 1015.0
20260905033105 77 188 3.5 7.0 0.00 0.00 0.00 23 1015.0
20260905031609 79 201 4.3 7.0 0.00 0.00 0.00 22 1015.0
20260905030106 79 186 2.6 7.0 0.00 0.00 0.00 22 1015.0
20260905024557 79 171 3.5 7.8 0.00 0.00 0.00 24 1014.7
20260905023104 79 185 1.7 4.3 0.00 0.00 0.00 25 1014.6
20260905021603 81 176 0.9 4.3 0.00 0.00 0.00 23 1014.2
20260905014559 83 174 1.7 7.0 0.00 0.00 0.00 20 1014.0
20260905013104 85 151 3.5 9.6 0.00 0.00 0.00 19 1013.8
20260905011600 87 192 5.2 12.2 0.00 0.00 0.00 18 1013.7
20260905010111 87 160 5.2 13.9 0.00 0.00 0.00 20 1013.4
20260905004610 88 177 7.0 15.6 0.00 0.00 0.00 20 1013.4
20260905003103 88 155 7.0 15.6 0.00 0.00 0.00 20 1013.3
20260905001602 89 150 8.7 14.8 0.00 0.00 0.00 19 1013.1
20260905000107 88 152 6.1 16.5 0.00 0.00 0.00 20 1013.2
20260904234601 90 174 7.0 14.8 0.00 0.00 0.00 19 1013.3
20260904233058 90 165 9.6 15.6 0.00 0.00 0.00 19 1013.3
20260904231600 90 176 6.1 14.8 0.00 0.00 0.00 18 1013.1
20260904230111 89 186 7.0 17.4 0.00 0.00 0.00 18 1013.3
20260904224558 90 100 5.2 10.4 0.00 0.00 0.00 18 1013.2
20260904223105 90 196 6.1 20.0 0.00 0.00 0.00 18 1013.2
20260904221608 90 146 9.6 20.0 0.00 0.00 0.00 18 1013.2
20260904220121 90 213 9.6 22.6 0.00 0.00 0.00 18 1013.3
20260904214603 89 178 7.0 22.6 0.00 0.00 0.00 18 1013.3
20260904213103 89 209 8.7 25.2 0.00 0.00 0.00 18 1013.3
20260904211607 90 189 7.0 19.1 0.00 0.00 0.00 17 1013.2
20260904204603 90 266 3.5 12.2 0.00 0.00 0.00 17 1013.2
20260904203103 89 163 5.2 13.9 0.00 0.00 0.00 18 1013.4
20260904201602 89 187 6.1 13.9 0.00 0.00 0.00 18 1013.4
20260904200113 88 224 5.2 19.1 0.00 0.00 0.00 18 1013.6
20260904194606 88 185 7.0 16.5 0.00 0.00 0.00 19 1013.7
20260904193104 88 172 6.1 18.2 0.00 0.00 0.00 20 1013.7
20260904191559 87 147 5.2 13.9 0.00 0.00 0.00 20 1013.8
20260904184613 86 203 6.1 19.1 0.00 0.00 0.00 20 1014.1
20260904183103 86 242 7.8 17.4 0.00 0.00 0.00 21 1014.3
20260904181602 85 182 7.8 16.5 0.00 0.00 0.00 22 1014.5
20260904180110 85 167 7.0 15.6 0.00 0.00 0.00 22 1014.6
20260904174622 84 226 6.1 14.8 0.00 0.00 0.00 22 1014.9
20260904173106 84 176 7.8 15.6 0.00 0.00 0.00 24 1014.9
20260904171604 83 156 7.8 18.2 0.00 0.00 0.00 24 1015.0
20260904170055 83 177 8.7 18.2 0.00 0.00 0.00 24 1014.9
20260904164558 83 157 6.1 18.2 0.00 0.00 0.00 24 1015.0
20260904163106 82 201 6.1 15.6 0.00 0.00 0.00 25 1014.9
20260904161607 81 152 7.0 17.4 0.00 0.00 0.00 26 1014.8
20260904160106 81 176 6.1 14.8 0.00 0.00 0.00 26 1014.8
20260904154559 80 190 7.0 11.3 0.00 0.00 0.00 26 1014.8
20260904153129 77 204 0.9 5.2 0.00 0.00 0.00 28 1014.7
20260904151606 75 134 0.0 5.2 0.00 0.00 0.00 28 1014.9